Presque Isle, ME

8:59 PM EDT on March 27, 2017 (GMT -0400)
Northern Maine Regional At Presque Isle

Weather History for KPQI - December, 2013

Change the Weather History Date:

Monday, December 16, 2013

  Actual Average Record
Temperature  
Mean Temperature 2 °F -  
Max Temperature 12 °F 27 °F 49 °F (1982)
Min Temperature -7 °F 8 °F -20 °F (1943)
Degree Days  
Heating Degree Days 62    
Moisture  
Dew Point -1 °F    
Average Humidity 71    
Maximum Humidity 100    
Minimum Humidity 57    
Precipitation  
Precipitation 0.00 in - - ()
Sea Level Pressure  
Sea Level Pressure 29.73 in    
Wind  
Wind Speed 8 mph (WSW)    
Max Wind Speed 21 mph    
Max Gust Speed 24 mph    
Visibility 8 miles    
Events      
Averages and records for this station are not official NWS values.
T = Trace of Precipitation, MM = Missing Value Source: NWS Daily Summary

Daily Weather History Graph

Daily Weather History Graph

Search for Another Location

Airport or City:

Trip Planner

Search our weather history database for the weather conditions in past years. The results will help you decide how hot, cold, wet, or windy it might be!

Date:

Astronomy

Dec. 16, 2013 Rise Set
Actual Time 7:10 AM EST 3:44 PM EST
Civil Twilight 6:35 AM EST 4:20 PM EST
Nautical Twilight 5:57 AM EST 4:58 PM EST
Astronomical Twilight 5:20 AM EST 5:35 PM EST
Moon 3:36 PM EST (12/16) 6:12 AM EST (12/16)
Length of Visible Light 9h 44m
Length of Day
8h 34m
Full, 100% of the Moon is Illuminated
Dec 16
Full
Dec 17
Full
Dec 25
Last Quarter
Jan 1
New
Jan 7
First Quarter

Hourly Weather History & Observations

Time (EST) Temp. Windchill Dew Point Humidity Pressure Visibility Wind Dir Wind Speed Gust Speed Precip Events Conditions
12:15 AM 12.2 °F 4.3 °F 8.6 °F 85% 29.53 in 3.0 mi West 4.6 mph - N/A   Overcast
12:35 AM 12.2 °F 6.1 °F 6.8 °F 79% 29.53 in 3.0 mi WNW 3.5 mph - N/A   Overcast
12:55 AM 12.2 °F 6.1 °F 8.6 °F 85% 29.52 in 3.0 mi West 3.5 mph - N/A   Overcast
1:15 AM 12.2 °F 1.7 °F 6.8 °F 79% 29.53 in 4.0 mi West 6.9 mph - N/A   Overcast
1:35 AM 12.2 °F 4.3 °F 6.8 °F 79% 29.53 in 2.5 mi West 4.6 mph - N/A   Overcast
1:55 AM 12.2 °F 1.7 °F 6.8 °F 79% 29.54 in 2.5 mi West 6.9 mph - N/A   Overcast
2:15 AM 12.2 °F 4.3 °F 6.8 °F 79% 29.54 in 3.0 mi WSW 4.6 mph - N/A   Overcast
2:35 AM 12.2 °F 2.9 °F 6.8 °F 79% 29.55 in 2.5 mi WSW 5.8 mph - N/A   Overcast
2:55 AM 12.2 °F 2.9 °F 8.6 °F 85% 29.55 in 2.5 mi West 5.8 mph - N/A   Overcast
3:15 AM 12.2 °F 2.9 °F 6.8 °F 79% 29.55 in 2.0 mi WSW 5.8 mph - N/A   Overcast
3:35 AM 12.2 °F 2.9 °F 6.8 °F 79% 29.55 in 2.0 mi WSW 5.8 mph - N/A   Overcast
3:55 AM 12.2 °F 1.7 °F 6.8 °F 79% 29.55 in 2.5 mi WSW 6.9 mph - N/A   Overcast
4:15 AM 10.4 °F -4.1 °F 5.0 °F 79% 29.56 in 3.0 mi West 11.5 mph - N/A   Overcast
4:35 AM 10.4 °F 0.8 °F 3.2 °F 73% 29.56 in 5.0 mi SW 5.8 mph - N/A   Overcast
4:55 AM 10.4 °F -2.4 °F 3.2 °F 73% 29.57 in 8.0 mi WSW 9.2 mph - N/A   Overcast
5:15 AM 10.4 °F -4.8 °F 3.2 °F 73% 29.57 in 3.0 mi WSW 12.7 mph 19.6 mph N/A   Overcast
5:35 AM 8.6 °F -6.3 °F 3.2 °F 79% 29.58 in 10.0 mi WSW 11.5 mph 17.3 mph N/A   Overcast
5:55 AM 8.6 °F -7.0 °F 1.4 °F 73% 29.59 in 10.0 mi WSW 12.7 mph - N/A   Overcast
6:15 AM 8.6 °F -7.0 °F 1.4 °F 73% 29.60 in 1.0 mi West 12.7 mph - N/A   Overcast
6:35 AM 8.6 °F -3.7 °F -0.4 °F 67% 29.60 in 8.0 mi WSW 8.1 mph - N/A   Mostly Cloudy
6:55 AM 6.8 °F -4.8 °F -0.4 °F 72% 29.61 in 10.0 mi WSW 6.9 mph - N/A   Mostly Cloudy
7:15 AM 6.8 °F -6.9 °F -0.4 °F 72% 29.62 in 10.0 mi SW 9.2 mph - N/A   Overcast
7:35 AM 6.8 °F -3.5 °F -0.4 °F 72% 29.62 in 10.0 mi SW 5.8 mph - N/A   Mostly Cloudy
7:55 AM 6.8 °F - -2.2 °F 67% 29.63 in 10.0 mi Calm Calm - N/A   Scattered Clouds
8:15 AM 6.8 °F -4.8 °F -2.2 °F 67% 29.65 in 10.0 mi WSW 6.9 mph - N/A   Mostly Cloudy
8:35 AM 6.8 °F -3.5 °F -2.2 °F 67% 29.65 in 10.0 mi SW 5.8 mph - N/A   Mostly Cloudy
8:55 AM 6.8 °F -0.1 °F -2.2 °F 67% 29.65 in 4.0 mi SW 3.5 mph - N/A   Scattered Clouds
9:15 AM 8.6 °F -4.7 °F -0.4 °F 67% 29.66 in 10.0 mi West 9.2 mph - N/A   Clear
9:35 AM 8.6 °F -3.7 °F -0.4 °F 67% 29.66 in 10.0 mi West 8.1 mph - N/A   Clear
9:55 AM 10.4 °F -3.3 °F -0.4 °F 62% 29.67 in 10.0 mi West 10.4 mph 17.3 mph N/A   Clear
10:15 AM 10.4 °F -2.4 °F -0.4 °F 62% 29.67 in 10.0 mi West 9.2 mph - N/A   Clear
10:35 AM 10.4 °F -5.4 °F -0.4 °F 62% 29.66 in 10.0 mi WSW 13.8 mph 18.4 mph N/A   Clear
10:55 AM 12.2 °F -1.8 °F 1.4 °F 62% 29.66 in 10.0 mi West 11.5 mph 19.6 mph N/A   Clear
11:15 AM 12.2 °F -4.3 °F 3.2 °F 67% 29.66 in 10.0 mi WSW 16.1 mph 24.2 mph N/A   Clear
11:35 AM 12.2 °F -3.1 °F 3.2 °F 67% 29.66 in 8.0 mi West 13.8 mph 21.9 mph N/A   Mostly Cloudy
11:55 AM 12.2 °F -2.5 °F 1.4 °F 62% 29.66 in 10.0 mi West 12.7 mph 18.4 mph N/A   Mostly Cloudy
12:15 PM 12.2 °F -4.3 °F 1.4 °F 62% 29.67 in 10.0 mi West 16.1 mph 21.9 mph N/A   Mostly Cloudy
12:35 PM 12.2 °F -6.3 °F 1.4 °F 62% 29.67 in 10.0 mi West 20.7 mph 24.2 mph N/A   Scattered Clouds
12:55 PM 12.2 °F -3.7 °F 1.4 °F 62% 29.68 in 10.0 mi West 15.0 mph - N/A   Scattered Clouds
1:15 PM 12.2 °F -4.3 °F 1.4 °F 62% 29.68 in 10.0 mi West 16.1 mph 23.0 mph N/A   Scattered Clouds
1:35 PM 12.2 °F -3.7 °F 1.4 °F 62% 29.69 in 10.0 mi West 15.0 mph 21.9 mph N/A   Mostly Cloudy
1:55 PM 12.2 °F -3.7 °F -0.4 °F 57% 29.70 in 9.0 mi West 15.0 mph 21.9 mph N/A   Overcast
2:15 PM 10.4 °F -5.4 °F 1.4 °F 67% 29.71 in 10.0 mi West 13.8 mph 18.4 mph N/A   Overcast
2:35 PM 10.4 °F -2.4 °F 1.4 °F 67% 29.73 in 4.0 mi West 9.2 mph 19.6 mph N/A   Mostly Cloudy
2:55 PM 10.4 °F -4.8 °F 1.4 °F 67% 29.75 in 5.0 mi West 12.7 mph 17.3 mph N/A   Mostly Cloudy
3:15 PM 10.4 °F -4.8 °F 1.4 °F 67% 29.76 in 8.0 mi West 12.7 mph - N/A   Overcast
3:35 PM 8.6 °F -6.3 °F -0.4 °F 67% 29.77 in 10.0 mi West 11.5 mph - N/A   Overcast
3:55 PM 8.6 °F -3.7 °F 1.4 °F 73% 29.79 in 10.0 mi WSW 8.1 mph - N/A   Mostly Cloudy
4:15 PM 6.8 °F -3.5 °F -0.4 °F 72% 29.80 in 10.0 mi WSW 5.8 mph - N/A   Mostly Cloudy
4:35 PM 6.8 °F -5.9 °F -2.2 °F 67% 29.82 in 10.0 mi WSW 8.1 mph 17.3 mph N/A   Overcast
4:55 PM 6.8 °F -7.8 °F -2.2 °F 67% 29.83 in 10.0 mi West 10.4 mph - N/A   Mostly Cloudy
5:15 PM 5.0 °F -10.0 °F -4.0 °F 66% 29.84 in 10.0 mi WSW 10.4 mph 18.4 mph N/A   Clear
5:35 PM 3.2 °F -13.1 °F -5.8 °F 66% 29.85 in 10.0 mi West 11.5 mph - N/A   Clear
5:55 PM 3.2 °F -13.9 °F -5.8 °F 66% 29.86 in 10.0 mi West 12.7 mph 19.6 mph N/A   Scattered Clouds
6:15 PM 3.2 °F -13.9 °F -5.8 °F 66% 29.88 in 10.0 mi West 12.7 mph 20.7 mph N/A   Overcast
6:35 PM 3.2 °F -14.6 °F -5.8 °F 66% 29.89 in 10.0 mi West 13.8 mph 20.7 mph N/A   Mostly Cloudy
6:55 PM 1.4 °F -16.1 °F -7.6 °F 66% 29.90 in 10.0 mi West 12.7 mph - N/A   Clear
7:15 PM 1.4 °F -14.5 °F -5.8 °F 72% 29.91 in 10.0 mi West 10.4 mph 16.1 mph N/A   Clear
7:35 PM 1.4 °F -13.5 °F -5.8 °F 72% 29.93 in 10.0 mi WSW 9.2 mph - N/A   Clear
7:55 PM -0.4 °F -15.7 °F -7.6 °F 72% 29.93 in 10.0 mi West 9.2 mph - N/A   Clear
8:15 PM -0.4 °F -14.7 °F -9.4 °F 66% 29.94 in 10.0 mi WSW 8.1 mph - N/A   Clear
8:35 PM -0.4 °F -14.7 °F -9.4 °F 66% 29.96 in 10.0 mi WSW 8.1 mph - N/A   Clear
8:55 PM -0.4 °F -13.4 °F -9.4 °F 66% 29.96 in 10.0 mi WSW 6.9 mph - N/A   Clear
9:15 PM -0.4 °F -12.0 °F -7.6 °F 72% 29.98 in 10.0 mi WSW 5.8 mph - N/A   Clear
9:35 PM -2.2 °F -12.5 °F -7.6 °F 78% 29.99 in 10.0 mi WSW 4.6 mph - N/A   Clear
9:55 PM -2.2 °F -14.2 °F -9.4 °F 71% 29.99 in 10.0 mi West 5.8 mph - N/A   Clear
10:15 PM -2.2 °F -14.2 °F -7.6 °F 78% 30.00 in 10.0 mi WSW 5.8 mph - N/A   Clear
10:35 PM -2.2 °F - -9.4 °F 71% 30.01 in 10.0 mi Calm Calm - N/A   Clear
10:55 PM -4.0 °F -14.6 °F -11.2 °F 71% 30.02 in 10.0 mi WSW 4.6 mph - N/A   Clear
11:15 PM -7.6 °F -16.5 °F -11.2 °F 84% 30.03 in 10.0 mi SSW 3.5 mph - N/A   Clear
11:35 PM -4.0 °F - -4.0 °F 100% 30.03 in 10.0 mi Calm Calm - N/A   Clear
11:55 PM -5.8 °F -18.4 °F -16.6 °F 60% 30.04 in 10.0 mi South 5.8 mph - N/A   Clear